Location: Newark
(52.3735°N, 16.9806°E)
Time: 04:52:01
(UTC+00:00)

LilacSat-2 - Pass Details

Date: 02 December 2021
Orbit: 511 x 532 km, 97.5° (Epoch: 16 January)

Event Time Altitude Azimuth Distance (km) Brightness Sun altitude
Rises 03:55:47 0° 24° (NNE) 2,686 ? -24.1°
Reaches altitude 10° 03:58:16 10° 40° (NE) 1,792 ? -23.7°
Maximum altitude 04:01:20 22° 93° (E) 1,199 ? -23.3°
Drops below altitude 10° 04:04:23 10° 145° (SE) 1,784 ? -22.8°
Sets 04:06:51 0° 161° (SSE) 2,670 ? -22.4°
